Station 46098 - OOI Waldport Offshore Image indicating link to RSS feed of recent meteorological observations for station 46098


Conditions at 46098 as of
(3:50 am PDT)
1050 GMT on 04/20/2024:
Note: This report is more than two hours old
     

Click on the graph icon in the table below to see a time series plot of the last five days of that observation.

5-day plot - Wind Direction Wind Direction (WDIR):SSW ( 210 deg true )
5-day plot - Wind Speed Wind Speed (WSPD): 9.7 kts
5-day plot - Atmospheric Pressure Atmospheric Pressure (PRES):29.93 in
5-day plot - Air Temperature Air Temperature (ATMP): 53.2 °F
5-day plot - Water Temperature Water Temperature (WTMP): 53.1 °F
5-day plot - Salinity Salinity (SAL): 31.61 psu
5-day plot - Wind Chill Wind Chill (CHILL): 49.6 °F
5-day plot - Wind Speed at 10 Meters Wind Speed at 10 meters (WSPD10M): 9.7 kts
5-day plot - Wind Speed at 20 Meters Wind Speed at 20 meters (WSPD20M): 11.7 kts
5-day plot -  Wind Speed, Wind Gust and Atmospheric Pressure Combined plot of Wind Speed, Gust, and Air Pressure
Previous observations
TIME
(PDT)
5-day plot - Wind Direction
WDIR
 
5-day plot - Wind Speed
WSPD
kts
5-day plot - Wind Gust
GST
kts
5-day plot - Wave Height
WVHT
ft
5-day plot - Dominant Wave Period
DPD
sec
5-day plot - Average Wave Period
APD
sec
5-day plot - Mean Wave Direction
MWD
 
5-day plot - Atmospheric Pressure
PRES
in
5-day plot - Pressure Tendency
PTDY
in
5-day plot - Air Temperature
ATMP
°F
5-day plot - Water Temperature
WTMP
°F
5-day plot - Dew Point
DEWP
°F
5-day plot - Salinity
SAL
psu
5-day plot - Visibility
VIS
nmi
5-day plot - Tide (above MLLW)
TIDE
ft
2024-04-20 03:40 am SW 9.7-----29.93- 53.2 52.9- 31.61--
2024-04-20 03:30 am SW 9.7-----29.93- 53.1 52.7- 31.60--
2024-04-20 03:20 amSSW 9.7- 2.6-- SW29.93- 53.1 52.7- 31.61--
2024-04-20 03:10 amSSW 7.8- 2.6 15--29.93- 52.9 52.5- 31.61--
2024-04-20 03:00 am SW 7.8-----29.93+0.00 53.1 52.7- 31.60--
2024-04-20 02:50 am SW 7.8-----29.93- 52.9 52.7- 31.60--
2024-04-20 02:40 am SW 7.8-----29.94- 52.7 52.7- 31.61--
2024-04-20 02:30 am SW 7.8-----29.93- 52.2 52.7- 31.60--
2024-04-20 02:20 amWSW 7.8- 3.3-- SW29.94- 52.3 52.9- 31.60--
2024-04-20 02:10 amWSW 7.8- 3.3 15--29.94- 52.3 52.9- 31.60--
2024-04-20 02:00 am SW 7.8-----29.94-0.01 52.3 52.9- 31.60--
2024-04-20 01:50 amWSW 7.8-----29.94- 52.3 52.9- 31.61--
2024-04-20 01:40 amWSW 7.8-----29.94- 52.3 52.9- 31.62--
2024-04-20 01:30 amWSW 7.8-----29.94- 52.3 53.1- 31.64--
2024-04-20 01:20 amWSW 5.8- 3.0-- W29.93- 52.3 53.2- 31.65--
2024-04-20 01:10 amWSW 5.8- 3.0 14--29.93- 52.3 53.4- 31.67--
2024-04-20 01:00 amWSW 5.8-----29.93-0.02 52.3 53.4- 31.67--
2024-04-20 12:50 am SW 3.9-----29.94- 52.5 53.4- 31.67--
2024-04-20 12:40 am SW 3.9-----29.93- 52.3 53.4- 31.67--
2024-04-20 12:30 amWSW 3.9-----29.93- 52.5 53.6- 31.66--
2024-04-20 12:20 amWSW 5.8- 3.3-- SW29.94- 52.5 53.6- 31.66--
2024-04-20 12:10 amWSW 5.8- 3.3 14--29.94- 52.5 53.6- 31.66--
2024-04-20 12:00 amWSW 3.9-----29.93-0.02 52.5 53.6- 31.66--
2024-04-19 11:50 pmWSW 3.9-----29.94- 52.5 53.6- 31.68--
2024-04-19 11:40 pm W 3.9-----29.94- 52.7 53.6- 31.68--
2024-04-19 11:30 pm W 3.9-----29.94- 52.7 53.6- 31.69--
2024-04-19 11:20 pm W 3.9- 3.0-- W29.94- 52.7 53.6- 31.70--
2024-04-19 11:10 pm W 3.9- 3.0 10--29.94- 52.7 53.4- 31.70--
2024-04-19 11:00 pm W 5.8-----29.95-0.01 52.7 53.4- 31.70--
2024-04-19 10:50 pm W 5.8-----29.95- 52.7 53.4- 31.70--
2024-04-19 10:40 pm W 5.8-----29.95- 52.7 53.4- 31.70--
2024-04-19 10:30 pm W 5.8-----29.95- 52.7 53.4- 31.70--
2024-04-19 10:20 pm W 3.9- 3.0--WSW29.96- 52.7 53.4- 31.70--
2024-04-19 10:10 pm W 3.9- 3.3 15--29.96- 52.7 53.4- 31.69--
2024-04-19 10:00 pm W 3.9-----29.96-0.01 52.9 53.4- 31.69--
2024-04-19 09:50 pmWNW 3.9-----29.96- 52.9 53.4- 31.69--
2024-04-19 09:40 pm W 3.9-----29.96- 52.9 53.4- 31.69--
2024-04-19 09:30 pmWNW 3.9-----29.96- 52.9 53.4- 31.69--
2024-04-19 09:20 pm NW 1.9- 3.0-- W29.96- 53.1 53.4- 31.69--
2024-04-19 09:10 pm NW 3.9- 3.0 15--29.96- 53.1 53.4- 31.69--
2024-04-19 09:00 pm NW 3.9-----29.96-0.03 53.1 53.4- 31.68--
2024-04-19 08:50 pm NW 3.9-----29.96- 53.2 53.4- 31.68--
2024-04-19 08:40 pmNNW 3.9-----29.95- 53.2 53.4- 31.68--
2024-04-19 08:30 pmNNW 3.9-----29.95- 53.2 53.4- 31.69--
2024-04-19 08:20 pm NW 3.9- 3.0--WSW29.96- 53.2 53.4- 31.69--
2024-04-19 08:10 pmWNW 3.9- 3.0 15--29.96- 53.4 53.4- 31.69--
2024-04-19 08:00 pm NW 3.9-----29.96- 53.4 53.6- 31.69--
2024-04-19 07:50 pmWNW 3.9-----29.96- 53.4 53.6- 31.68--
2024-04-19 07:40 pmWNW 5.8-----29.96- 53.6 53.6- 31.68--
2024-04-19 07:30 pmWNW 5.8-----29.96- 53.6 53.6- 31.67--
2024-04-19 07:20 pmWNW 3.9- 3.6--WSW29.96- 53.8 53.6- 31.67--
2024-04-19 07:10 pm NW 3.9- 3.6 15--29.97- 53.8 53.6- 31.66--
2024-04-19 07:00 pm NW 3.9-----29.97-0.03 54.1 53.6- 31.66--
2024-04-19 06:50 pmNNW 3.9-----29.97- 54.1 53.6- 31.66--
2024-04-19 06:40 pm NW 3.9-----29.97- 54.1 53.6- 31.66--
2024-04-19 06:30 pmNNW 3.9-----29.98- 54.3 53.6- 31.65--
2024-04-19 06:20 pm NW 3.9- 3.3-- W29.98- 54.3 53.6- 31.65--
2024-04-19 06:10 pmNNW 3.9- 3.3 15--29.98- 54.5 53.6- 31.65--
2024-04-19 06:00 pmNNW 5.8-----29.98-0.03 54.5 53.6- 31.65--
2024-04-19 05:50 pmNNW 3.9-----29.98- 54.5 53.4- 31.65--
2024-04-19 05:40 pm N 3.9-----29.98- 54.3 53.4- 31.64--
2024-04-19 05:30 pm N 5.8-----29.98- 54.5 53.4- 31.65--
2024-04-19 05:20 pm N 5.8- 3.3-- W29.99- 54.7 53.4- 31.64--
2024-04-19 05:10 pmNNW 5.8- 3.3 14--29.99- 54.5 53.4- 31.64--
2024-04-19 05:00 pm N 5.8-----29.99-0.03 54.5 53.2- 31.65--
2024-04-19 04:50 pm N 5.8-----29.99- 54.5 53.2- 31.65--
2024-04-19 04:40 pm N 5.8-----29.99- 54.5 53.4- 31.65--
2024-04-19 04:30 pm N 5.8-----30.00- 54.5 53.4- 31.64--
2024-04-19 04:20 pm N 5.8- 3.6-- W30.00- 54.5 53.1- 31.64--
2024-04-19 04:10 pm N 5.8- 3.6 15--30.00- 54.3 53.2- 31.64--
2024-04-19 04:00 pm N 7.8-----30.00-0.02 54.3 53.4- 31.64--
2024-04-19 03:50 pm N 5.8-----30.00- 54.3 53.4- 31.64--
2024-04-19 03:40 pm N 7.8-----30.01- 54.3 53.4- 31.65--
2024-04-19 03:30 pm N 5.8-----30.01- 54.3 53.4- 31.65--
2024-04-19 03:20 pm N 7.8- 3.3-- W30.01- 54.1 53.4- 31.65--
2024-04-19 03:10 pm N 7.8- 3.3 15--30.01- 54.0 53.2- 31.64--
2024-04-19 03:00 pm N 7.8-----30.01- 54.0 53.2- 31.65--
2024-04-19 02:50 pm N 7.8-----30.01- 54.0 53.2- 31.65--
2024-04-19 02:40 pm N 7.8-----30.01- 54.0 53.2- 31.65--
2024-04-19 02:30 pm N 7.8-----30.02- 54.0 53.4- 31.66--
2024-04-19 02:20 pm N 7.8- 3.3-- W30.02- 54.0 53.2- 31.67--
2024-04-19 02:10 pm N 7.8- 3.3 15--30.02- 54.0 53.2- 31.67--
2024-04-19 02:00 pm N 7.8-----30.02+0.00 54.0 53.2- 31.67--
2024-04-19 01:50 pm N 7.8-----30.01- 54.0 53.2- 31.68--
2024-04-19 01:40 pm N 5.8-----30.01- 53.8 53.2- 31.68--
2024-04-19 01:30 pm N 5.8-----30.02- 53.8 53.2- 31.68--
2024-04-19 01:20 pm N 5.8- 3.6-- W30.02- 53.8 53.2- 31.68--
2024-04-19 01:10 pm N 5.8- 3.6 15--30.02- 53.8 53.1- 31.69--
2024-04-19 01:00 pm N 5.8-----30.02+0.00 53.8 53.1- 31.69--
2024-04-19 12:50 pm N 5.8-----30.02- 53.8 53.1- 31.69--
2024-04-19 12:40 pm N 5.8-----30.02- 53.8 53.1- 31.70--
2024-04-19 12:30 pm N 5.8-----30.02- 53.8 52.9- 31.69--
2024-04-19 12:20 pm N 5.8- 3.6--WSW30.02- 53.8 52.9- 31.70--
2024-04-19 12:10 pm N 5.8- 3.6 15--30.02- 53.8 52.9- 31.70--
2024-04-19 12:00 pmNNE 5.8-----30.02+0.01 53.6 52.9- 31.70--
2024-04-19 11:50 amNNE 5.8-----30.02- 53.6 52.7- 31.70--
2024-04-19 11:40 amNNE 5.8-----30.02- 53.6 52.7- 31.70--
2024-04-19 11:30 amNNE 5.8-----30.02- 53.4 52.7- 31.70--
2024-04-19 11:20 amNNE 5.8- 3.3-- NW30.02- 53.6 52.7- 31.70--
2024-04-19 11:10 amNNE 5.8- 3.3 15--30.01- 53.6 52.5- 31.70--
2024-04-19 11:00 amNNE 5.8-----30.01+0.00 53.8 52.5- 31.71--
2024-04-19 10:50 am NE 5.8-----30.01- 54.0 52.5- 31.71--
2024-04-19 10:40 am NE 7.8-----30.01- 54.0 52.5- 31.71--
2024-04-19 10:30 amNNE 7.8-----30.01- 54.0 52.5- 31.71--
2024-04-19 10:20 am NE 7.8- 3.3-- W30.01- 54.1 52.3- 31.72--
2024-04-19 10:10 am NE 5.8- 3.3 15--30.01- 54.0 52.3- 31.72--
2024-04-19 10:00 am NE 7.8-----30.01+0.01 54.0 52.3- 31.72--
2024-04-19 09:50 am NE 5.8-----30.01- 53.8 52.3- 31.72--
2024-04-19 09:40 am NE 7.8-----30.01- 53.8 52.3- 31.72--
2024-04-19 09:30 am NE 7.8-----30.01- 54.0 52.3- 31.72--
2024-04-19 09:20 am NE 7.8- 3.6--WNW30.01- 54.0 52.3- 31.72--
2024-04-19 09:10 am NE 7.8- 3.6 15--30.01- 53.8 52.2- 31.71--
2024-04-19 09:00 amNNE 7.8-----30.01+0.01 53.8 52.2- 31.71--
2024-04-19 08:50 amNNE 5.8-----30.02- 53.8 52.2- 31.71--
2024-04-19 08:40 am NE 5.8-----30.01- 53.8 52.2- 31.71--
2024-04-19 08:30 am NE 7.8-----30.01- 54.0 52.2- 31.71--
2024-04-19 08:20 am NE 7.8- 3.9--WNW30.01- 54.0 52.2- 31.70--
2024-04-19 08:10 am NE 7.8- 3.9 15--30.01- 54.0 52.2- 31.70--
2024-04-19 08:00 am NE 7.8-----30.01+0.01 53.8 52.2- 31.70--
2024-04-19 07:50 am NE 7.8-----30.01- 54.0 52.2- 31.70--
2024-04-19 07:40 am NE 7.8-----30.01- 54.0 52.2- 31.70--
2024-04-19 07:30 am NE 9.7-----30.01- 54.0 52.2- 31.70--
2024-04-19 07:20 amNNE 9.7- 3.6--NNW30.01- 53.8 52.2- 31.70--
2024-04-19 07:10 amNNE 9.7- 3.6 15--30.01- 54.0 52.2- 31.70--
2024-04-19 07:00 amNNE 9.7-----30.01- 53.8 52.2- 31.70--
2024-04-19 06:50 amNNE 9.7-----30.01- 53.6 52.2- 31.70--
2024-04-19 06:40 amNNE 9.7-----30.00- 53.8 52.2- 31.70--
2024-04-19 06:30 amNNE 9.7-----30.01- 53.6 52.2- 31.70--
2024-04-19 06:20 am NE 9.7- 4.3--NNW30.00- 53.4 52.2- 31.70--
2024-04-19 06:10 amNNE 9.7- 4.3 15--30.00- 53.4 52.2- 31.70--
2024-04-19 06:00 amNNE 9.7-----30.00- 53.4 52.2- 31.70--
2024-04-19 05:50 amNNE 9.7-----30.00- 53.6 52.2- 31.70--
2024-04-19 05:40 amNNE 9.7-----30.00- 53.4 52.2- 31.69--
2024-04-19 05:30 amNNE 9.7-----30.00- 53.6 52.2- 31.69--
2024-04-19 05:20 amNNE 9.7- 4.6--NNW30.00- 53.6 52.2- 31.69--
2024-04-19 05:10 amNNE 9.7- 4.6 15--30.00- 53.6 52.2- 31.69--
2024-04-19 05:00 amNNE 9.7-----30.00- 53.6 52.2- 31.69--

Detailed Wave Summary
for 46098 as of (3:10 am PDT)
1010 GMT on 04/20/2024:

Note: This report is more than two hours old

These wave data are displayed in rounded times.

     

Click on the graph icon in the table below to see a time series plot of the last five days of that observation.

5-day plot - Significant Wave Height Significant Wave Height (WVHT): 2.6 ft
Previous observations
TIME
(PDT)
5-day plot - Wave Height
WVHT
ft
5-day plot - Swell Height
SwH
ft
5-day plot - Swell Period
SwP
sec
5-day plot - Swell Direction
SwD
 
5-day plot - Wind Wave Height
WWH
ft
5-day plot - Wind Wave Period
WWP
sec
5-day plot - Wind Wave Direction
WWD
 
5-day plot - Wave Steepness
STEEPNESS
 
5-day plot - Average Wave Period
APD
sec
2024-04-20 02:10 am 3.3------ N/A-
2024-04-20 01:10 am 3.0------ N/A-
2024-04-20 12:10 am 3.3------ N/A-
2024-04-19 11:10 pm 3.0------ N/A-
2024-04-19 10:10 pm 3.0------ N/A-
2024-04-19 09:10 pm 3.0------ N/A-
2024-04-19 08:10 pm 3.0------ N/A-
2024-04-19 07:10 pm 3.6------ N/A-
2024-04-19 06:10 pm 3.3------ N/A-
2024-04-19 05:10 pm 3.3------ N/A-
2024-04-19 04:10 pm 3.6------ N/A-
2024-04-19 03:10 pm 3.3------ N/A-
2024-04-19 02:10 pm 3.3------ N/A-
2024-04-19 01:10 pm 3.6------ N/A-
2024-04-19 12:10 pm 3.6------ N/A-
2024-04-19 11:10 am 3.3------ N/A-
2024-04-19 10:10 am 3.3------ N/A-
2024-04-19 09:10 am 3.6------ N/A-
2024-04-19 08:10 am 3.9------ N/A-
2024-04-19 07:10 am 3.6------ N/A-
2024-04-19 06:10 am 4.3------ N/A-
2024-04-19 05:10 am 4.6------ N/A-

Ocean Conditions at 46098 as of
(3:50 am PDT)
1050 GMT on 04/20/2024:
Note: This report is more than two hours old

These oceanographic data are displayed in rounded times.

     

Click on the graph icon in the table below to see a time series plot of the last five days of that observation.

Depth (DEPTH): 3.6 ft
5-day plot - Ocean Temperature Ocean Temperature (OTMP):53.02 °F
5-day plot - Salinity Salinity (SAL):31.61 psu
Previous observations
TIME
(PDT)
DEPTH
ft
5-day plot - Ocean Temperature
OTMP
°F
5-day plot - Conductivity
COND
mS/cm
5-day plot - Salinity
SAL
psu
5-day plot - Oxygen Concentration
O2%
%
5-day plot - Oxygen Concentration
O2PPM
ppm
5-day plot - Chlorophyll
CLCON
ug/l
5-day plot - Turbidity
TURB
FTU
5-day plot - pH
PH
 
5-day plot - Eh
EH
mv
2024-04-20 03:40 am 3.652.95-31.61------
2024-04-20 03:30 am 3.652.75-31.60------
2024-04-20 03:20 am 3.652.63-31.61------
2024-04-20 03:10 am 3.652.57-31.61------
2024-04-20 03:00 am 3.652.65-31.60------
2024-04-20 02:50 am 3.652.66-31.60------
2024-04-20 02:40 am 3.652.68-31.61------
2024-04-20 02:30 am 3.652.75-31.60------
2024-04-20 02:20 am 3.652.81-31.60------
2024-04-20 02:10 am 3.652.83-31.60------
2024-04-20 02:00 am 3.652.84-31.60------
2024-04-20 01:50 am 3.652.88-31.61------
2024-04-20 01:40 am 3.652.97-31.62------
2024-04-20 01:30 am 3.653.13-31.64------
2024-04-20 01:20 am 3.653.28-31.65------
2024-04-20 01:10 am 3.653.40-31.67------
2024-04-20 01:00 am 3.653.44-31.67------
2024-04-20 12:50 am 3.653.46-31.67------
2024-04-20 12:40 am 3.653.47-31.67------
2024-04-20 12:30 am 3.653.51-31.66------
2024-04-20 12:20 am 3.653.51-31.66------
2024-04-20 12:10 am 3.653.55-31.66------
2024-04-20 12:00 am 3.653.56-31.66------
2024-04-19 11:50 pm 3.653.56-31.68------
2024-04-19 11:40 pm 3.653.56-31.68------
2024-04-19 11:30 pm 3.653.55-31.69------
2024-04-19 11:20 pm 3.653.51-31.70------
2024-04-19 11:10 pm 3.653.47-31.70------
2024-04-19 11:00 pm 3.653.38-31.70------
2024-04-19 10:50 pm 3.653.37-31.70------
2024-04-19 10:40 pm 3.653.38-31.70------
2024-04-19 10:30 pm 3.653.38-31.70------
2024-04-19 10:20 pm 3.653.40-31.70------
2024-04-19 10:10 pm 3.653.40-31.69------
2024-04-19 10:00 pm 3.653.40-31.69------
2024-04-19 09:50 pm 3.653.40-31.69------
2024-04-19 09:40 pm 3.653.40-31.69------
2024-04-19 09:30 pm 3.653.40-31.69------
2024-04-19 09:20 pm 3.653.38-31.69------
2024-04-19 09:10 pm 3.653.40-31.69------
2024-04-19 09:00 pm 3.653.40-31.68------
2024-04-19 08:50 pm 3.653.40-31.68------
2024-04-19 08:40 pm 3.653.42-31.68------
2024-04-19 08:30 pm 3.653.46-31.69------
2024-04-19 08:20 pm 3.653.47-31.69------
2024-04-19 08:10 pm 3.653.51-31.69------
2024-04-19 08:00 pm 3.653.55-31.69------
2024-04-19 07:50 pm 3.653.58-31.68------
2024-04-19 07:40 pm 3.653.62-31.68------
2024-04-19 07:30 pm 3.653.60-31.67------
2024-04-19 07:20 pm 3.653.58-31.67------
2024-04-19 07:10 pm 3.653.58-31.66------
2024-04-19 07:00 pm 3.653.56-31.66------
2024-04-19 06:50 pm 3.653.58-31.66------
2024-04-19 06:40 pm 3.653.56-31.66------
2024-04-19 06:30 pm 3.653.55-31.65------
2024-04-19 06:20 pm 3.653.56-31.65------
2024-04-19 06:10 pm 3.653.56-31.65------
2024-04-19 06:00 pm 3.653.55-31.65------
2024-04-19 05:50 pm 3.653.49-31.65------
2024-04-19 05:40 pm 3.653.47-31.64------
2024-04-19 05:30 pm 3.653.49-31.65------
2024-04-19 05:20 pm 3.653.49-31.64------
2024-04-19 05:10 pm 3.653.35-31.64------
2024-04-19 05:00 pm 3.653.31-31.65------
2024-04-19 04:50 pm 3.653.28-31.65------
2024-04-19 04:40 pm 3.653.35-31.65------
2024-04-19 04:30 pm 3.653.37-31.64------
2024-04-19 04:20 pm 3.653.13-31.64------
2024-04-19 04:10 pm 3.653.31-31.64------
2024-04-19 04:00 pm 3.653.40-31.64------
2024-04-19 03:50 pm 3.653.40-31.64------
2024-04-19 03:40 pm 3.653.42-31.65------
2024-04-19 03:30 pm 3.653.44-31.65------
2024-04-19 03:20 pm 3.653.40-31.65------
2024-04-19 03:10 pm 3.653.33-31.64------
2024-04-19 03:00 pm 3.653.31-31.65------
2024-04-19 02:50 pm 3.653.24-31.65------
2024-04-19 02:40 pm 3.653.28-31.65------
2024-04-19 02:30 pm 3.653.37-31.66------
2024-04-19 02:20 pm 3.653.31-31.67------
2024-04-19 02:10 pm 3.653.20-31.67------
2024-04-19 02:00 pm 3.653.20-31.67------
2024-04-19 01:50 pm 3.653.20-31.68------
2024-04-19 01:40 pm 3.653.24-31.68------
2024-04-19 01:30 pm 3.653.20-31.68------
2024-04-19 01:20 pm 3.653.20-31.68------
2024-04-19 01:10 pm 3.653.15-31.69------
2024-04-19 01:00 pm 3.653.10-31.69------
2024-04-19 12:50 pm 3.653.02-31.69------
2024-04-19 12:40 pm 3.653.01-31.70------
2024-04-19 12:30 pm 3.652.93-31.69------
2024-04-19 12:20 pm 3.652.86-31.70------
2024-04-19 12:10 pm 3.652.84-31.70------
2024-04-19 12:00 pm 3.652.81-31.70------
2024-04-19 11:50 am 3.652.77-31.70------
2024-04-19 11:40 am 3.652.72-31.70------
2024-04-19 11:30 am 3.652.65-31.70------
2024-04-19 11:20 am 3.652.63-31.70------
2024-04-19 11:10 am 3.652.57-31.70------
2024-04-19 11:00 am 3.652.52-31.71------
2024-04-19 10:50 am 3.652.50-31.71------
2024-04-19 10:40 am 3.652.47-31.71------
2024-04-19 10:30 am 3.652.47-31.71------
2024-04-19 10:20 am 3.652.41-31.72------
2024-04-19 10:10 am 3.652.39-31.72------
2024-04-19 10:00 am 3.652.34-31.72------
2024-04-19 09:50 am 3.652.34-31.72------
2024-04-19 09:40 am 3.652.30-31.72------
2024-04-19 09:30 am 3.652.30-31.72------
2024-04-19 09:20 am 3.652.27-31.72------
2024-04-19 09:10 am 3.652.25-31.71------
2024-04-19 09:00 am 3.652.23-31.71------
2024-04-19 08:50 am 3.652.23-31.71------
2024-04-19 08:40 am 3.652.21-31.71------
2024-04-19 08:30 am 3.652.21-31.71------
2024-04-19 08:20 am 3.652.20-31.70------
2024-04-19 08:10 am 3.652.18-31.70------
2024-04-19 08:00 am 3.652.18-31.70------
2024-04-19 07:50 am 3.652.18-31.70------
2024-04-19 07:40 am 3.652.18-31.70------
2024-04-19 07:30 am 3.652.18-31.70------
2024-04-19 07:20 am 3.652.18-31.70------
2024-04-19 07:10 am 3.652.18-31.70------
2024-04-19 07:00 am 3.652.18-31.70------
2024-04-19 06:50 am 3.652.18-31.70------
2024-04-19 06:40 am 3.652.20-31.70------
2024-04-19 06:30 am 3.652.18-31.70------
2024-04-19 06:20 am 3.652.18-31.70------
2024-04-19 06:10 am 3.652.20-31.70------
2024-04-19 06:00 am 3.652.18-31.70------
2024-04-19 05:50 am 3.652.18-31.70------
2024-04-19 05:40 am 3.652.18-31.69------
2024-04-19 05:30 am 3.652.18-31.69------
2024-04-19 05:20 am 3.652.18-31.69------
2024-04-19 05:10 am 3.652.18-31.69------
2024-04-19 05:00 am 3.652.20-31.69------

Solar Radiation Conditions at 46098 as of
(3:50 am PDT)
1050 GMT on 04/20/2024:
Note: This report is more than two hours old
     

Click on the graph icon in the table below to see a time series plot of the last five days of that observation.

5-day plot - Short Wave Radiation 1 Short Wave Radiation 1 (SRAD1): 2.9watts/meter2
5-day plot - Long Wave Radiation Long Wave Radiation (LWRAD): 302.2watts/meter2
Previous observations
TIME
(PDT)
5-day plot - Short Wave Radiation 1
SRAD1
w/m2
5-day plot - Short Wave Radiation 2
SRAD2
w/m2
5-day plot - Long Wave Radiation
LRAD
w/m2
2024-04-20 03:40 am 3.3- 308.1
2024-04-20 03:30 am 3.5- 312.6
2024-04-20 03:20 am 3.9- 317.6
2024-04-20 03:10 am 4.5- 322.0
2024-04-20 03:00 am 4.8- 325.3
2024-04-20 02:50 am 4.9- 328.5
2024-04-20 02:40 am 5.0- 331.5
2024-04-20 02:30 am 5.2- 334.7
2024-04-20 02:20 am 5.7- 337.2
2024-04-20 02:10 am 5.6- 336.7
2024-04-20 02:00 am 5.6- 336.3
2024-04-20 01:50 am 5.8- 336.0
2024-04-20 01:40 am 5.8- 335.4
2024-04-20 01:30 am 5.7- 334.8
2024-04-20 01:20 am 5.6- 334.1
2024-04-20 01:10 am 5.5- 333.5
2024-04-20 01:00 am 5.4- 331.1
2024-04-20 12:50 am 5.3- 330.9
2024-04-20 12:40 am 5.1- 330.3
2024-04-20 12:30 am 5.1- 330.8
2024-04-20 12:20 am 5.4- 330.3
2024-04-20 12:10 am 5.4- 332.9
2024-04-20 12:00 am 5.2- 332.5
2024-04-19 11:50 pm 4.9- 332.7
2024-04-19 11:40 pm 5.0- 334.7
2024-04-19 11:30 pm 5.1- 335.3
2024-04-19 11:20 pm 5.1- 334.1
2024-04-19 11:10 pm 5.1- 333.2
2024-04-19 11:00 pm 5.1- 331.4
2024-04-19 10:50 pm 5.1- 330.3
2024-04-19 10:40 pm 5.3- 329.5
2024-04-19 10:30 pm 5.1- 327.2
2024-04-19 10:20 pm 4.9- 324.7
2024-04-19 10:10 pm 4.7- 322.8
2024-04-19 10:00 pm 4.6- 320.2
2024-04-19 09:50 pm 4.4- 317.5
2024-04-19 09:40 pm 4.5- 314.1
2024-04-19 09:30 pm 4.3- 309.6
2024-04-19 09:20 pm 4.2- 306.2
2024-04-19 09:10 pm 4.1- 304.6
2024-04-19 09:00 pm 4.1- 300.7
2024-04-19 08:50 pm 4.1- 298.3
2024-04-19 08:40 pm 3.8- 297.1
2024-04-19 08:30 pm 3.7- 293.5
2024-04-19 08:20 pm 4.4- 288.7
2024-04-19 08:10 pm 7.0- 284.7
2024-04-19 08:00 pm 13.8- 282.4
2024-04-19 07:50 pm 26.2- 282.6
2024-04-19 07:40 pm 37.4- 285.0
2024-04-19 07:30 pm 66.6- 288.7
2024-04-19 07:20 pm 88.7- 285.7
2024-04-19 07:10 pm 75.7- 281.6
2024-04-19 07:00 pm 94.9- 279.2
2024-04-19 06:50 pm 138.3- 277.8
2024-04-19 06:40 pm 162.3- 278.1
2024-04-19 06:30 pm 190.9- 275.4
2024-04-19 06:20 pm 249.5- 273.9
2024-04-19 06:10 pm 272.8- 276.8
2024-04-19 06:00 pm 398.8- 280.9
2024-04-19 05:50 pm 341.6- 283.4
2024-04-19 05:40 pm 289.4- 280.7
2024-04-19 05:30 pm 244.4- 274.7
2024-04-19 05:20 pm 465.4- 275.5
2024-04-19 05:10 pm 450.6- 276.7
2024-04-19 05:00 pm 410.8- 274.2
2024-04-19 04:50 pm 477.3- 274.0
2024-04-19 04:40 pm 585.1- 273.3
2024-04-19 04:30 pm 631.6- 272.2
2024-04-19 04:20 pm 606.0- 270.8
2024-04-19 04:10 pm 690.2- 270.6
2024-04-19 04:00 pm 704.6- 270.9
2024-04-19 03:50 pm 711.7- 271.0
2024-04-19 03:40 pm 743.0- 270.7
2024-04-19 03:30 pm 778.9- 270.6
2024-04-19 03:20 pm 797.1- 271.1
2024-04-19 03:10 pm 819.6- 270.2
2024-04-19 03:00 pm 831.8- 271.1
2024-04-19 02:50 pm 836.9- 270.8
2024-04-19 02:40 pm 839.3- 271.1
2024-04-19 02:30 pm 867.5- 271.5
2024-04-19 02:20 pm 864.2- 271.4
2024-04-19 02:10 pm 900.9- 271.3
2024-04-19 02:00 pm 904.4- 270.6
2024-04-19 01:50 pm 909.2- 270.1
2024-04-19 01:40 pm 907.1- 271.0
2024-04-19 01:30 pm 912.6- 271.8
2024-04-19 01:20 pm 905.6- 270.9
2024-04-19 01:10 pm 915.9- 272.0
2024-04-19 01:00 pm 914.3- 271.4
2024-04-19 12:50 pm 910.7- 270.6
2024-04-19 12:40 pm 897.1- 270.8
2024-04-19 12:30 pm 897.0- 270.6
2024-04-19 12:20 pm 888.6- 271.1
2024-04-19 12:10 pm 873.0- 271.2
2024-04-19 12:00 pm 866.1- 270.7
2024-04-19 11:50 am 852.7- 268.8
2024-04-19 11:40 am 838.4- 270.6
2024-04-19 11:30 am 820.2- 270.0
2024-04-19 11:20 am 801.3- 270.1
2024-04-19 11:10 am 786.5- 269.6
2024-04-19 11:00 am 763.1- 269.4
2024-04-19 10:50 am 749.1- 269.3
2024-04-19 10:40 am 722.9- 269.9
2024-04-19 10:30 am 700.1- 269.2
2024-04-19 10:20 am 668.4- 269.1
2024-04-19 10:10 am 636.5- 269.7
2024-04-19 10:00 am 613.2- 269.2
2024-04-19 09:50 am 582.0- 269.2
2024-04-19 09:40 am 551.6- 268.9
2024-04-19 09:30 am 522.3- 267.1
2024-04-19 09:20 am 498.6- 268.9
2024-04-19 09:10 am 466.3- 269.8
2024-04-19 09:00 am 421.4- 270.3
2024-04-19 08:50 am 392.9- 270.4
2024-04-19 08:40 am 353.7- 271.0
2024-04-19 08:30 am 326.6- 271.0
2024-04-19 08:20 am 286.3- 271.8
2024-04-19 08:10 am 254.2- 271.5
2024-04-19 08:00 am 232.1- 272.4
2024-04-19 07:50 am 195.5- 272.0
2024-04-19 07:40 am 166.1- 271.8
2024-04-19 07:30 am 133.0- 272.7
2024-04-19 07:20 am 111.0- 273.1
2024-04-19 07:10 am 82.1- 273.3
2024-04-19 07:00 am 62.5- 273.1
2024-04-19 06:50 am 43.4- 273.8
2024-04-19 06:40 am 26.7- 273.3
2024-04-19 06:30 am 12.3- 273.5
2024-04-19 06:20 am 7.1- 274.3
2024-04-19 06:10 am 5.1- 274.4
2024-04-19 06:00 am 4.9- 274.9
2024-04-19 05:50 am 4.9- 275.4
2024-04-19 05:40 am 4.7- 275.9
2024-04-19 05:30 am 4.8- 275.8
2024-04-19 05:20 am 4.7- 276.7
2024-04-19 05:10 am 4.7- 276.6
2024-04-19 05:00 am 4.9- 277.7